Regional Weather Roundup
Issued by NWS Boston, MA

Home | Current Version | Previous Version | Text Only | Print | Product List | Glossary On
Versions: 1 2 3 4 5 6 7 8 9 10 11 12 13 14 15 16 17 18 19 20 21 22 23 24 25 26 27 28 29 30 31 32 33 34 35 36 37 38 39 40 41 42 43 44 45 46 47 48 49 50
000
ASUS41 KBOX 211510
RWRBOX

REGIONAL WEATHER ROUNDUP
NATIONAL WEATHER SERVICE TAUNTON MA
1100 AM EDT TUE OCT 21 2014

NOTE:  "FAIR" INDICATES FEW OR NO CLOUDS BELOW 12,000 FEET WITH NO
SIGNIFICANT WEATHER AND/OR OBSTRUCTIONS TO VISIBILITY.  THE FOLLOWING
OBSERVATION LOCATIONS DO NOT REPORT PRESENT WEATHER...PROVINCETOWN...
SMITHFIELD...BLOCK ISLAND...KEENE...AND OXFORD.

MAZALL-211600-
EASTERN MASSACHUSETTS

CITY           SKY/WX    TMP DP  RH WIND       PRES   REMARKS
BOSTON         CLOUDY    59  53  80 E7        29.96F
BEVERLY        CLOUDY    59  52  77 SE9       29.97S
LAWRENCE       CLOUDY    51  47  86 NE7       30.00F
BEDFORD        CLOUDY    53  48  83 VRB3      29.96S
BLUE HILL        N/A     59  53  80 SE7       29.95F
NORWOOD        PTSUNNY   61  53  75 SE8       29.95F
MARSHFIELD     NOT AVBL
PLYMOUTH       CLOUDY    61  56  83 SE8       29.96S
TAUNTON        PTSUNNY   63  55  75 E9        29.95S
NEW BEDFORD    PTSUNNY   62  56  80 SE15      29.94F
$$

MAZALL-211600-
CAPE COD AND THE ISLANDS

CITY           SKY/WX    TMP DP  RH WIND       PRES   REMARKS
FALMOUTH       PTSUNNY   61  55  82 SE17      29.96F
HYANNIS        CLOUDY    60  55  83 SE12G22   29.95S
CHATHAM        CLOUDY    56  55  97 SE9G21    29.98F
PROVINCETOWN   CLOUDY    61  54  77 S13G18    29.98S
NANTUCKET      CLOUDY    58  55  90 E14       29.96F
MARTHAS VNYRD  CLOUDY    61  56  83 SE14G22   29.95F
$$

MAZALL-211600-
CENTRAL AND WESTERN MASSACHUSETTS

CITY           SKY/WX    TMP DP  RH WIND       PRES   REMARKS
WORCESTER      CLOUDY    52  45  76 NE3       29.95F
FITCHBURG      PTSUNNY   54  45  71 NE3       29.98F
ORANGE         CLOUDY    51  45  79 NW8       29.96S
SPRINGFIELD    NOT AVBL
WESTFIELD      PTSUNNY   53  44  71 N6        29.94F
NORTH ADAMS    LGT RAIN  49  45  86 E6        29.94F
PITTSFIELD     LGT RAIN  48  46  93 NE5       29.92S
$$

RIZALL-211600-
RHODE ISLAND

CITY           SKY/WX    TMP DP  RH WIND       PRES   REMARKS
PROVIDENCE     LGT RAIN  59  54  83 CALM      29.95F
NEWPORT        CLOUDY    62  56  80 S12       29.94S
BLOCK ISLAND   CLOUDY    63  55  77 S13       29.93R
SMITHFIELD     CLOUDY    59  48  67 E6        29.94F
WESTERLY       CLOUDY    60  56  86 N5        29.93F
$$

CTZALL-211600-
CONNECTICUT

CITY           SKY/WX    TMP DP  RH WIND       PRES   REMARKS
BRADLEY INTL   PTSUNNY   57  45  64 CALM      29.93F
HARTFORD       PTSUNNY   56  48  74 VRB6      29.93F
BRIDGEPORT     MOSUNNY   62  54  74 E12       29.90F
DANBURY        CLOUDY    57  28  33 CALM      29.92S
GROTON         CLOUDY    62  54  74 CALM      29.92F
NEW HAVEN      PTSUNNY   67  55  65 E12       29.91F
CHESTER        NOT AVBL
MERIDEN        PTSUNNY   57  46  66 NW6       29.93F
WILLIMANTIC    PTSUNNY   58  48  69 CALM      29.93F
OXFORD         PTSUNNY   57  46  67 SE7       29.92S
$$

MEZ002-015-021-024-NHZ003-005-008-011-012-014-VTZ005-008-211600-
NORTHERN NEW ENGLAND

CITY           SKY/WX    TMP DP  RH WIND       PRES   REMARKS
PORTLAND ME    CLOUDY    53  46  77 NE5       30.04F
BANGOR ME      CLOUDY    51  35  54 SE3       30.10R
CONCORD NH     LGT RAIN  49  44  83 N5        29.99F
MANCHESTER NH  CLOUDY    54  44  69 NE7       29.97F
NASHUA NH      CLOUDY    52  45  77 CALM      29.99F
PORTSMOUTH NH  CLOUDY    53  49  83 NE7       29.98F
JAFFREY NH     CLOUDY    48  44  86 N5        29.98F
KEENE NH       CLOUDY    48  39  71 CALM      29.98S
BURLINGTON VT  CLOUDY    49  44  83 E5        29.97S
MT. WASHINGTON FOG       28  28 100 S18G25      N/A  VSB 0   WCI  16
$$

NYZ052-076-211600-
EASTERN NEW YORK

CITY           SKY/WX    TMP DP  RH WIND       PRES   REMARKS
ALBANY         LGT RAIN  50  47  89 CALM      29.94R FOG
NEW YORK CITY  PTSUNNY   65  48  54 NE7       29.88F
$$

ANZALL-211600-
MARINE OBSERVATIONS

STATION/POSITION TIME  TEMP    WIND        PRES    VSBY  WAVE
                       AIR SEA DIR/SP/G                  HT/PER
                 (UTC) (F)     (DEG/KT/KT) (MB)    (MI)  (FT/S)
BOSTON BUOY      NOT AVBL
BUZZARDS BAY     NOT AVBL
NANTUCKET SOUND  NOT AVBL
MASS BAY-STELLWA NOT AVBL
ISLE OF SHOALS   NOT AVBL
S OF BLOCK IS    NOT AVBL
$$

......................KEY.........................
  SKY/WX - SKY CONDITION/PRESENT WEATHER
  TMP    - TEMPERATURE IN FAHRENHEIT
  DWPT   - DEWPOINT IN FAHRENHEIT
  RH     - RELATIVE HUMIDITY IN PERCENT
  WIND   - DIRECTION AND SPEED IN MPH
  PRES   - MEAN SEA LEVEL PRESSURE IN INCHES OF HG
  WCI    - WIND CHILL INDEX
  VSB    - VISIBILITY IN MILES
  HX     - HEAT INDEX
  TC     - TEMPERATURE IN CELSIUS
  VRB    - VARIABLE WIND DIRECTION
  N/A    - NOT AVAILABLE


USA.gov is the U.S. government's official web portal to all federal, state and local government web resources and services.